Tracking 17138 objects as of 7-July-2015
HD Live streaming from Space Station

EUTE HOT BIRD 13A (HB 6)

Track EUTE HOT BIRD 13A (HB 6) now!
EUTE HOT BIRD 13A (HB 6) is classified as:


NORAD ID: 27499
Int'l Code: 2002-038A
Perigee: 35,777.7 km
Apogee: 35,809.4 km
Inclination: 0.1 °
Period: 1,436.1 minutes
Semi major axis: 42164 km
RCS: 15.0118 m2 (large)
Launch date: August 21, 2002
Source: European Telecommunications Satellite Organization (EUTE)

Cable programming; direct-to-home broadcasting; 28 Ku-band, 4 Ka-band transponders
Your satellite tracking list
Your tracking list is empty





NASA's NSSDC Master Catalog

Two Line Element Set (TLE):
1 27499U 02038A   15187.11558819 -.00000073  00000-0  00000+0 0  9994
2 27499 000.0587 320.0030 0003766 134.3215 223.5851 01.00272449 47110

Source of the keplerian elements: AFSPC

N2YO: 255